This demonstration page uses our WeatherBlox Daily Observations layout. Learn more.

Left ArrowRight Arrow

40.92945, -100.16068

Hourly Observations for September 19, 2021

Temp ( °F °C ) Dew Point ( °F °C ) Humidity (%) Winds ( mph kmh ) Pressure ( in mb ) Visibility ( mi km ) Precip ( " mm )
12:15 am 00:15 Clear 73 22.7 58 14.5 60 60 S 17 28 29.87 1011 10 16 N/A
12:35 am 00:35 Clear 72 22.3 58 14.2 60 60 S 15 24 29.88 1012 10 16 N/A
12:55 am 00:55 Clear 71 21.7 58 14.2 63 63 S 13 20 29.89 1012 10 16 N/A
1:15 am 01:15 Clear 70 21.3 58 14.3 64 64 S 13 20 29.89 1012 10 16 N/A
1:35 am 01:35 Clear 70 21.2 58 14.4 65 65 S 14 22 29.89 1012 10 16 N/A
1:55 am 01:55 Clear 69 20.6 58 14.5 68 68 S 14 22 29.89 1012 10 16 N/A
2:15 am 02:15 Clear 69 20.5 58 14.4 68 68 S 13 20 29.90 1012 10 16 N/A
2:35 am 02:35 Clear 68 20.1 58 14.3 69 69 S 13 20 29.90 1013 10 16 N/A
2:55 am 02:55 Clear 68 19.9 58 14.3 70 70 S 13 20 29.89 1012 10 16 N/A
3:15 am 03:15 Clear 67 19.5 58 14.2 72 72 S 12 19 29.89 1012 10 16 N/A
3:35 am 03:35 Clear 67 19.4 57 14.1 72 72 S 13 20 29.89 1012 10 16 N/A
3:55 am 03:55 Clear 66 19 57 14.1 73 73 SSE 12 19 29.88 1012 10 16 N/A
4:15 am 04:15 Clear 65 18.6 57 14 75 75 SSE 13 20 29.88 1012 10 16 N/A
4:35 am 04:35 Clear 65 18.3 57 14 76 76 SSE 10 17 29.88 1012 10 16 N/A
4:55 am 04:55 Clear 64 18 57 14 78 78 SSE 13 20 29.87 1011 10 16 N/A
5:15 am 05:15 Clear 64 17.9 57 14 78 78 SSE 13 20 29.86 1011 10 16 N/A
5:35 am 05:35 Clear 64 17.7 57 14 79 79 SSE 13 20 29.85 1011 10 16 N/A
5:55 am 05:55 Clear 64 17.6 57 14 80 80 SSE 10 17 29.85 1011 10 16 N/A
6:15 am 06:15 Clear 64 17.8 57 14 79 79 SSE 13 20 29.84 1011 10 16 N/A
6:35 am 06:35 Clear 64 18 57 14 78 78 SSE 10 17 29.84 1010 10 16 N/A
6:55 am 06:55 Clear 65 18.3 57 14.1 77 77 SSE 13 20 29.84 1010 10 16 N/A
7:15 am 07:15 Clear 65 18.3 57 14 76 76 SSE 10 17 29.83 1010 10 16 N/A
7:35 am 07:35 Sunny 65 18.3 57 14.1 77 77 SSE 10 17 29.84 1010 10 16 N/A
7:55 am 07:55 Sunny 65 18.1 58 14.2 78 78 SSE 9 15 29.84 1010 10 16 N/A
8:15 am 08:15 Sunny 66 18.9 58 14.3 75 75 SSE 15 24 29.81 1010 10 16 N/A
8:35 am 08:35 Sunny 66 19.1 58 14.4 74 74 SSE 16 26 29.81 1009 10 16 N/A
8:55 am 08:55 Sunny 67 19.6 58 14.4 72 72 SSE 16 26 29.80 1009 10 16 N/A
9:15 am 09:15 Sunny 67 19.5 58 14.5 73 73 SSE 17 28 29.78 1008 10 16 N/A
9:35 am 09:35 Sunny 70 21.1 59 14.8 67 67 SSE 21 33 29.75 1008 10 16 N/A
9:55 am 09:55 Sunny 72 22.3 59 15.1 64 64 S 17 28 29.74 1007 10 16 N/A
10:15 am 10:15 Sunny 75 23.7 59 15.1 59 59 S 14 22 29.74 1007 10 16 N/A
10:35 am 10:35 Sunny 76 24.7 60 15.3 56 56 S 20 31 29.73 1007 10 16 N/A
10:55 am 10:55 Sunny 77 25.1 60 15.6 56 56 S 22 35 29.72 1006 10 16 N/A
11:15 am 11:15 Sunny 79 26 60 15.6 53 53 S 18 30 29.70 1006 10 16 N/A
11:35 am 11:35 Sunny 80 26.8 60 15.8 51 51 S 21 33 29.69 1005 10 16 N/A
11:55 am 11:55 Sunny 81 27.1 60 15.5 49 49 S 21 33 29.68 1005 10 16 N/A
12:15 pm 12:15 Sunny 79 26.2 59 15 50 50 S 16 26 29.69 1005 7 11 N/A
12:35 pm 12:35 Sunny 83 28.3 61 16 47 47 S 22 35 29.65 1004 10 16 N/A
12:55 pm 12:55 Sunny 84 29 61 16.2 46 46 S 15 24 29.64 1004 10 16 N/A
1:15 pm 13:15 Sunny 86 30.2 60 15.5 41 41 S 22 35 29.62 1003 10 16 N/A
1:35 pm 13:35 Sunny 88 31 60 15.8 40 40 S 23 37 29.59 1002 10 16 N/A
1:55 pm 13:55 Sunny 89 31.5 60 15.6 38 38 S 23 37 29.58 1002 10 16 N/A
2:15 pm 14:15 Sunny 89 31.9 61 16 38 38 S 21 33 29.57 1001 10 16 N/A
2:35 pm 14:35 Sunny 90 32.2 60 15.6 37 37 S 23 37 29.55 1001 10 16 N/A
2:55 pm 14:55 Sunny 90 32.1 60 15.6 37 37 SSE 26 43 29.54 1000 10 16 N/A
3:15 pm 15:15 Sunny 92 33.1 61 15.9 36 36 SSE 23 37 29.52 1000 7 11 N/A
3:35 pm 15:35 Sunny 89 31.8 60 15.5 37 37 S 22 35 29.53 1000 10 16 N/A
3:55 pm 15:55 Sunny 92 33.4 61 15.9 35 35 SSE 22 35 29.50 999 10 16 N/A
4:15 pm 16:15 Sunny 92 33.4 60 15.6 34 34 SSE 26 43 29.49 999 10 16 N/A
4:35 pm 16:35 Sunny 92 33.5 60 15.6 34 34 S 22 35 29.49 999 7 11 N/A
4:55 pm 16:55 Sunny 92 33.3 60 15.7 35 35 SSE 20 31 29.49 998 10 16 N/A
5:15 pm 17:15 Sunny 91 33 60 15.5 35 35 SSE 23 37 29.49 999 7 11 N/A
5:35 pm 17:35 Sunny 90 32.3 60 15.6 36 36 SSE 23 37 29.48 998 10 16 N/A
5:55 pm 17:55 Sunny 89 31.6 60 15.6 38 38 SSE 22 35 29.49 999 10 16 N/A
6:15 pm 18:15 Sunny 88 31.1 62 16.7 42 42 SSE 21 33 29.48 998 10 16 N/A
6:35 pm 18:35 Partly Cloudy 86 30 62 16.7 45 45 SSE 21 33 29.49 999 10 16 N/A
6:55 pm 18:55 Partly Cloudy 85 29.6 62 16.6 45 45 SSE 22 35 29.49 999 10 16 N/A
7:15 pm 19:15 Sunny 84 28.8 62 16.6 48 48 SSE 17 28 29.49 999 10 16 N/A
7:35 pm 19:35 Sunny 83 28.2 63 17 51 51 SSE 21 33 29.50 999 10 16 N/A
7:55 pm 19:55 Clear 82 27.6 62 16.7 51 51 SSE 22 35 29.50 999 10 16 N/A
8:15 pm 20:15 Clear 81 27.2 61 16.2 51 51 SSE 22 35 29.51 999 10 16 N/A
8:35 pm 20:35 Clear 80 26.8 61 15.9 51 51 SSE 17 28 29.53 1000 10 16 N/A
8:55 pm 20:55 Clear 80 26.5 60 15.5 51 51 SE 16 26 29.53 1000 10 16 N/A
9:15 pm 21:15 Clear 79 26 59 15.1 51 51 SSE 17 28 29.54 1000 10 16 N/A
9:35 pm 21:35 Mostly Cloudy 79 26 59 14.8 50 50 SSE 18 30 29.54 1000 10 16 N/A
9:55 pm 21:55 Partly Cloudy 78 25.6 59 15 52 52 SSE 21 33 29.56 1001 10 16 N/A
10:15 pm 22:15 Partly Cloudy 77 25.2 59 15.2 54 54 SSE 20 31 29.56 1001 10 16 N/A
10:35 pm 22:35 Partly Cloudy 77 25 60 15.3 55 55 SSE 22 35 29.55 1001 10 16 N/A
10:55 pm 22:55 Clear 77 25 59 14.8 53 53 SSE 21 33 29.55 1001 10 16 N/A
11:15 pm 23:15 Clear 76 24.6 58 14.6 54 54 SSE 20 31 29.54 1000 10 16 N/A
11:35 pm 23:35 Clear 75 24.1 59 14.8 56 56 SSE 18 30 29.55 1001 10 16 N/A
11:55 pm 23:55 Clear 75 23.9 59 14.9 57 57 SSE 17 28 29.55 1001 10 16 N/A

Powered by AerisWeather